#timestamp,LO_Frequency,Hit,StdDev 
1598464815.5,286047003.2,N
1598464835.3,286047003.4,N
1598464855.2,286047001.3,N
1598464875.9,286047002.5,N
1598464895.7,286047002.3,N
1598464915.6,286047002.3,N
1598464935.4,286047001.3,N
1598464955.2,286047003.9,N
1598464975.1,286047003.6,N
1598464976.0,286047003.6,N
1598464995.8,286047002.6,N
1598465015.7,286047002.6,N
1598465035.5,286047002.0,N
1598465055.3,286047001.7,N
1598465075.2,286047002.2,N
1598465095.9,286047002.5,N
1598465115.7,286047002.5,N
1598465135.6,286047002.4,N
1598465155.4,286047002.4,N
1598465175.2,286047002.2,N
1598465195.1,286047002.2,N
1598465196.0,286047002.2,N
1598465215.8,286046998.2,N
1598465235.7,286046998.1,N
1598465255.5,286046998.3,N
1598465275.3,286046998.4,N
1598465295.2,286047001.1,N
1598465315.0,286047000.7,N
1598465315.9,286047000.7,N
1598465335.8,286047000.3,N
1598465355.6,286047000.9,N
1598465375.4,286046998.1,N
1598465395.3,286047000.8,N
1598465415.1,286047000.7,N
1598465435.8,286046999.8,N
1598465455.7,286047000.6,N
1598465475.5,286046999.9,N
1598465495.4,286047002.4,N
1598465515.2,286047002.8,N
1598465535.0,286047000.0,N
1598465535.9,286047000.0,N
1598465555.8,286047000.3,N
1598465575.6,286046999.9,N
1598465595.5,286047001.2,N
1598465615.3,286046998.9,N
1598465635.1,286046998.6,N
1598465655.9,286047001.2,N
1598465675.7,286046998.3,N
1598465695.5,286046998.8,N
1598465715.4,286047000.5,N
1598465735.2,286047001.0,N
1598465755.1,286047000.1,N
1598465756.0,286047000.1,N
1598465775.8,286047000.9,N
1598465795.6,286046998.3,N
1598465815.5,286047002.1,N
1598465835.3,286047001.4,N
1598465855.1,286047000.2,N
1598465875.9,286047000.0,N
1598465895.7,286047000.2,N
1598465915.6,286047001.2,N
1598465935.4,286046999.9,N
1598465955.2,286047002.8,N
1598465975.1,286047002.4,N
1598465976.0,286047002.4,N
1598465995.8,286046999.9,N
1598466015.7,286047000.4,N
1598466035.5,286047002.4,N
1598466055.3,286047002.3,N
1598466075.2,286047004.0,Y
1598466095.0,286047001.8,P
1598466095.9,286047001.8,N
1598466115.8,286047002.4,P
1598466135.6,286046999.9,N
1598466155.4,286047002.1,N
1598466175.3,286047001.9,N
1598466195.1,286047000.0,N
1598466215.9,286047002.8,N
1598466235.7,286047001.9,N
1598466255.5,286047003.0,Y
1598466275.4,286047002.5,P
1598466295.2,286047001.6,P
1598466315.0,286047002.8,P
1598466315.9,286047002.8,Y
1598466335.8,286046999.3,P
1598466355.6,286046998.9,N
1598466375.5,286046999.1,N
1598466395.3,286046996.9,N
1598466415.1,286046997.0,N
1598466435.9,286046999.1,N
1598466455.7,286046996.6,N
1598466505.6,286046997.8,E
1598466515.5,286046996.7,N
1598466535.3,286046998.4,P
1598466555.2,286046998.4,N
1598466575.0,286047000.8,N
1598466575.9,286047000.8,N
1598466595.7,286046998.6,N
1598466615.6,286046999.5,N
1598466635.4,286046997.0,N
1598466655.3,286046999.2,N
1598466675.1,286046999.6,N
1598466676.0,286046999.6,N
1598466695.8,286046998.3,N
1598466715.7,286046998.9,N
1598466735.5,286046999.3,N
1598466755.3,286047000.8,N
1598466775.2,286046998.8,N
1598466795.0,286046999.4,N
1598466795.9,286046999.4,N
1598466815.8,286046998.3,N
1598466835.6,286047001.9,N
1598466855.4,286047002.1,N
1598466875.3,286047004.1,Y
1598466895.1,286047001.9,P
1598466915.9,286047002.4,N
1598466935.7,286047000.2,N
1598466955.5,286047001.1,N
1598466975.4,286047001.1,N
1598466995.2,286047002.4,N
1598467015.1,286047002.1,N
1598467016.0,286047002.1,N
1598467035.8,286047002.1,N
1598467055.6,286047002.3,N
1598467075.5,286046999.8,N
1598467095.3,286047000.6,N
1598467115.1,286047000.4,N
1598467135.9,286047000.9,N
1598467155.7,286047000.8,N
1598467175.6,286047000.6,N
1598467195.4,286047002.3,N
1598467215.2,286046999.9,N
1598467235.1,286046999.9,N
1598467236.0,286046999.9,N
1598467255.8,286047000.3,N
1598467275.7,286047000.6,N
1598467295.5,286047000.2,N
1598467315.3,286047000.1,N
1598467335.2,286047000.0,N
1598467355.0,286047001.1,N
1598467355.9,286047001.1,N
1598467375.8,286047001.1,N
1598467395.6,286046998.1,N
1598467415.4,286047001.0,N
1598467435.3,286046998.1,N
1598467455.1,286046998.5,N
1598467456.0,286046998.5,N
1598467475.8,286046999.0,N
1598467495.7,286046996.5,N
1598467515.5,286046997.5,N
1598467535.3,286046997.3,N
1598467555.2,286046996.5,N
1598467575.0,286046997.2,N
1598467575.9,286046997.2,N
1598467595.8,286046996.6,N
1598467615.6,286046996.9,N
1598467635.4,286046996.9,N
1598467655.3,286046999.2,N
1598467675.1,286046999.4,N
1598467695.9,286046998.3,N
1598467715.7,286046998.2,N
1598467735.5,286046998.2,N
1598467755.4,286046998.4,N
1598467775.2,286046998.4,N
1598467795.0,286047001.1,N
1598467795.9,286047001.1,N
1598467815.8,286046998.7,N
1598467835.6,286046998.9,N
1598467855.5,286046997.0,N
1598467875.3,286046996.5,N
1598467895.1,286046998.7,N
1598467915.9,286046999.2,N
1598467935.7,286047001.2,N
1598467955.5,286046998.5,N
1598467975.4,286047000.0,N
1598467995.2,286046999.8,N
1598468015.1,286047000.1,N
1598468016.0,286047000.1,N
1598468035.8,286046998.8,N
1598468055.6,286046999.5,N
1598468075.5,286046998.5,N
1598468095.3,286046999.4,N
1598468115.1,286046999.4,N
1598468135.9,286046998.7,N
1598468155.7,286046999.0,N
1598468175.6,286047000.3,N
1598468195.4,286047000.7,N
1598468215.2,286047001.2,N
1598468235.1,286046999.0,N
1598468236.0,286046999.0,N
1598468255.8,286046999.3,N
1598468275.6,286046998.4,N
1598468295.5,286047000.5,N
1598468315.3,286047001.2,N
1598468335.2,286046998.3,N
1598468355.0,286047000.0,N
1598468355.9,286047000.0,N
1598468375.7,286046999.8,N
1598468395.6,286047000.8,N
